Regional Weather Roundup
Issued by NWS

Home | Current Version | Previous Version | Text Only | Print | Product List | Glossary On
Versions: 1 2 3 4 5 6 7 8 9 10 11 12 13 14 15 16 17 18 19 20 21 22 23 24 25 26 27 28 29 30 31 32 33 34 35 36 37 38 39 40 41 42 43 44 45 46 47 48 49 50
352
ASUS43 KLSX 270507
RWRMO
STLRWRMO ALL

WEATHER SUMMARY FOR MISSOURI
NATIONAL WEATHER SERVICE SPRINGFIELD MO
1200 AM CDT THU JUL 27 2017

NOTE: "FAIR" INDICATES FEW OR NO CLOUDS BELOW 12,000 FEET WITH NO
       SIGNIFICANT WEATHER AND/OR OBSTRUCTIONS TO VISIBILITY.
       CURRENT SKY AND/OR WEATHER CONDITIONS ARE NOT AVAILABLE FOR
       CHILLICOTHE AND FARMINGTON.

MOZ001>031-035>038-043-044-053-054-270600-
...NORTHERN AND WESTERN MISSOURI...

CITY           SKY/WX    TMP DP  RH WIND       PRES   REMARKS
KANSAS CTY INT CLOUDY    73  72  96 CALM      29.97S
KANSAS C DTWN  LGT RAIN  74  74 100 E3        29.95F
LEE`S SUMMIT   TSTM      74  73  97 SW6       29.95F
ST JOSEPH      CLOUDY    76  76 100 CALM      29.96F
CHILLICOTHE      N/A     78  77  96 S3        29.98S
KIRKSVILLE     CLOUDY    76  73  91 CALM      29.98S

$$
MOZ066>068-077>081-088>096-101>105-270600-
...SOUTHWEST MISSOURI...

CITY           SKY/WX    TMP DP  RH WIND       PRES   REMARKS
SPRINGFIELD    MOCLDY    82  73  74 S8        30.00F
JOPLIN         CLOUDY    86  73  65 S13       29.99S HX  93

$$
MOZ032>034-039>042-045>050-055>058-069>072-270600-
...CENTRAL MISSOURI...

CITY           SKY/WX    TMP DP  RH WIND       PRES   REMARKS
COLUMBIA       RAIN      77  73  88 W5        29.98R FOG
JEFFERSON CITY LGT RAIN  82  80  94 NW9       29.96R HX  94
ROLLA          CLOUDY    81  72  74 S7        30.00S
SEDALIA        LGT RAIN  79  79 100 E6        29.97F
WHITEMAN AFB   TSTM      75  75 100 NW13G39   30.01R FOG
WARRENSBURG    TSTM      70  68  94 N8G28     29.99R
OSAGE BEACH    CLOUDY    83  73  72 SW3       29.99R

$$
MOZ051-052-059>065-270600-
...EAST CENTRAL MISSOURI...

CITY           SKY/WX    TMP DP  RH WIND       PRES   REMARKS
ST LOUIS INTL  CLOUDY    82  75  79 E6        29.95F
SPIRIT OF STL  PTCLDY    81  75  82 CALM      29.93F
ST CHARLES     PTCLDY    79  72  79 CALM      29.93F

$$
MOZ072>076-082>087-097>100-106>115-270600-
...SOUTH CENTRAL AND SOUTHEAST MISSOURI...

CITY           SKY/WX    TMP DP  RH WIND       PRES   REMARKS
CAPE GIRARDEAU CLOUDY    80  73  79 SW7       29.97S
FARMINGTON     CLOUDY    80  73  79 CALM      30.00S
POPLAR BLUFF   MOCLDY    80  76  87 S6        29.98S
WEST PLAINS    CLEAR     80  71  74 SW6       30.03F

$$




USA.gov is the U.S. government's official web portal to all federal, state and local government web resources and services.